Location: Dyersburg
(36.0438°N, 89.3789°W)
Time: 21:14:01
(UTC+00:00)

Tiros 1 despin weight - Visible Passes

Search period start: 17 February 2020 00:00
Search period end: 27 February 2020 00:00
Orbit: 594 x 642 km, 48.2° (Epoch: 16 February)

Date Brightness Start Highest point End Pass type
(mag) Time Alt. Az. Time Alt. Az. Time Alt. Az.
17 Feb ? 10:42:24 17° N 10:42:24 17° N 10:44:58 10° NE visible
18 Feb ? 10:58:09 16° NNW 10:59:03 17° N 11:01:55 10° NE visible
19 Feb ? 11:13:55 14° NNW 11:16:05 18° N 11:19:12 10° NE visible
20 Feb ? 09:52:38 12° NNE 09:52:38 12° NNE 09:53:12 10° NE visible
20 Feb ? 11:29:41 11° NW 11:33:03 23° NNE 11:36:38 10° ENE visible
21 Feb ? 10:08:26 16° NNE 10:08:26 16° NNE 10:10:18 10° NE visible
21 Feb ? 11:45:53 10° NW 11:49:55 34° NNE 11:53:57 10° E visible
22 Feb ? 10:24:17 20° N 10:24:23 20° NNE 10:27:40 10° ENE visible
22 Feb ? 12:02:16 10° NW 12:06:37 57° NNE 12:10:59 10° ESE visible
23 Feb ? 10:40:11 24° N 10:41:19 27° NNE 10:45:04 10° E visible
24 Feb ? 10:56:09 26° NNW 10:58:06 41° NNE 11:02:18 10° E visible
25 Feb ? 09:35:08 14° ENE 09:35:08 14° ENE 09:36:08 10° ENE visible
25 Feb ? 11:12:12 25° NW 11:14:45 75° NE 11:19:10 10° ESE visible
26 Feb ? 09:51:17 23° ENE 09:51:17 23° ENE 09:53:30 10° E visible
26 Feb ? 11:28:22 20° WNW 11:31:15 55° SW 11:35:34 10° SE visible
